Location: Unspecified
(34.0516°N, 0.0000°E)
Time: 01:08:11
(UTC+00:00)

Orbcomm 28 - Visible Passes

Search period start: 04 April 2026 00:00
Search period end: 14 April 2026 00:00
Orbit: 759 x 764 km, 45.0° (Epoch: 29 March)

Date Brightness Start Highest point End Pass type
(mag) Time Alt. Az. Time Alt. Az. Time Alt. Az.
6 Apr 9.8 05:02:51 10° S 05:06:38 20° SE 05:10:26 10° E visible
7 Apr 9.9 04:22:39 10° SSE 04:25:24 14° SE 04:28:11 10° E visible
9 Apr 8.4 04:42:13 10° SSW 04:47:15 43° SE 04:52:17 10° ENE visible
10 Apr 8.8 04:02:41 17° S 04:05:57 32° SE 04:10:40 10° ENE visible
11 Apr 9.1 03:23:33 22° SSE 03:24:41 24° SE 03:28:53 10° E visible
11 Apr 7.6 05:04:06 10° WSW 05:09:26 75° NNW 05:14:48 10° NE visible
12 Apr 9.6 02:44:20 17° ESE 02:44:20 17° ESE 02:46:52 10° E visible
12 Apr 7.5 04:24:23 21° SW 04:28:02 87° SE 04:33:24 10° ENE visible
13 Apr 7.6 03:45:05 44° SSW 03:46:39 67° SE 03:51:58 10° ENE visible
